Location: Assche-ter-Heiden
(50.9174°N, 4.1574°E)
Time: 13:42:08
(UTC+00:00)

Cosmos 1371 Rocket - Pass Details

Date: 20 January 2020
Orbit: 753 x 790 km, 74.0° (Epoch: 16 February)

Event Time Altitude Azimuth Distance (km) Brightness Sun altitude
Exits shadow 06:02:57 - 335° (NNW) 2,553 6.3 -14.2°
Reaches altitude 10° 06:03:33 10° 335° (NNW) 2,326 6.1 -14.1°
Maximum altitude 06:08:51 86° 247° (WSW) 786 4.0 -13.3°
Drops below altitude 10° 06:14:10 10° 159° (SSE) 2,333 7.0 -12.5°
Sets 06:16:33 0° 159° (SSE) 3,262 7.8 -12.2°
